Printer-friendly version

IAU Minor Planet Center

Minor Planet Center

MPEC 2006-F17 : 2003 FD128, 2005 GV210

The following Minor Planet Electronic Circular may be linked-to from your own Web pages, but must not otherwise be redistributed electronically.


Read MPEC 2006-F16 Read MPEC 2006-F18


M.P.E.C. 2006-F17                                Issued 2006 Mar. 21, 23:53 UT

     The Minor Planet Electronic Circulars contain information on unusual
         minor planets and routine data on comets.  They are published
   on behalf of Commission 20 of the International Astronomical Union by the
          Minor Planet Center, Smithsonian Astrophysical Observatory,
                          Cambridge, MA 02138, U.S.A.

                  Supported in part by the Brinson Foundation
                  Supported in part by the TABASGO Foundation
             Prepared using the Tamkin Foundation Computer Network

                              MPC@CFA.HARVARD.EDU
          URL http://cfa-www.harvard.edu/iau/mpc.html  ISSN 1523-6714

                            2003 FD128, 2005 GV210

                      Revision to MPEC 2003-H07, 2005-M48

Additional Observations:
     K03FC8D  C2004 02 22.37938 11 17 41.82 +06 24 19.7          23.3 R EF017695
     K03FC8D  C2004 02 22.42094 11 17 41.59 +06 24 21.0                 EF017695
     K03FC8D  C2006 02 23.28322 11 29 57.91 +05 24 27.5          22.9 R EF017304
     K03FC8D  C2006 02 23.30282 11 29 57.82 +05 24 27.9                 EF017304
     K05GL0V  C2006 02 23.28855 12 39 07.00 -00 59 12.9          23.0 R EF017304
     K05GL0V  C2006 02 23.30749 12 39 06.93 -00 59 12.5                 EF017304
     K05GL0V  C2006 03 02.41041 12 38 40.60 -00 55 44.5          22.7 R EF017695
     K05GL0V  C2006 03 02.46280 12 38 40.40 -00 55 42.8                 EF017695
     K05GL0V  C2006 03 02.51517 12 38 40.20 -00 55 41.4                 EF017695

Observer details:
304 Las Campanas Observatory.  Observers P. L. Schechter, E. Adams.  Measurer
    S. D. Kern.  Baade 6.5-m telescope + CCD.
695 Kitt Peak.  Observers M. W. Buie, L. H. Wasserman, R. L. Millis.
    4-m f/2.8 reflector + CCD.

Orbital elements:
2003 FD128
Epoch 2006 Mar. 6.0 TT = JDT 2453800.5                  MPC
M  25.15306              (2000.0)            P               Q
n   0.00413578     Peri.  355.19431     -0.81252338     -0.58099949
a  38.4383328      Node   149.13085     +0.53785708     -0.77856051
e   0.0238499      Incl.    5.29906     +0.22475657     -0.23724065
P 238              H    7.4           G   0.15           U   5
Residuals in seconds of arc
K033V  695  0.4+  0.4+    K034L  304  0.2-  0.0     K042M  695  0.3+  0.3+
K033V  695  0.0   0.4+    K035V  568  0.1-  0.6-    K042M  695  0.1-  0.2+
K0341  695  0.3+  0.3+    K0361  568  0.2-  0.5-    K062N  304  0.0   0.1+
K034K  304  0.2-  0.1-    K0362  568  0.2-  0.5-    K062N  304  0.0   0.2-

2005 GV210
Epoch 2006 Mar. 6.0 TT = JDT 2453800.5                  MPC
M 108.57947              (2000.0)            P               Q
n   0.00405846     Peri.  253.08757     +0.37554108     -0.92661000
a  38.9250003      Node   174.73637     +0.90958326     +0.36454116
e   0.1217503      Incl.   11.98325     +0.17784037     +0.09221520
P 243              H    6.8           G   0.15           U   6
Residuals in seconds of arc
K054C  695  0.2+  0.0     K0579  304  0.1-  0.0     K0632  695  0.1-  0.1-
K054C  695  0.2-  0.2+    K057A  304  0.1+  0.1+    K0632  695  0.0   0.0
K0569  304  0.1+  0.2-    K062N  304  0.1-  0.2+    K0632  695  0.1+  0.1-
K0569  304  0.3-  0.2-    K062N  304  0.1-  0.0

Ephemerides:
2003 FD128               a,e,i = 38.44, 0.02, 5                  q = 37.522
Date    TT    R. A. (2000) Decl.     Delta      r     Elong.  Phase     V
2006 03 16    11 28.27   +05 36.0   36.622   37.613   174.9     0.1    23.1
2006 03 26    11 27.45   +05 41.4   36.649   37.613   165.0     0.4    23.2
2006 04 05    11 26.68   +05 46.4   36.704   37.613   155.0     0.6    23.2
2006 04 15    11 25.97   +05 50.8   36.787   37.614   145.0     0.9    23.2
2006 04 25    11 25.37   +05 54.6   36.895   37.614   135.1     1.1    23.3
2006 05 05    11 24.88   +05 57.5   37.023   37.614   125.3     1.3    23.3
2006 05 15    11 24.53   +05 59.4   37.168   37.615   115.5     1.4    23.3
2006 05 25    11 24.34   +06 00.4   37.326   37.615   105.9     1.5    23.3
2006 06 04    11 24.29   +06 00.3   37.491   37.615    96.3     1.5    23.3
2006 06 14    11 24.41   +05 59.2   37.660   37.616    86.7     1.5    23.4
2006 06 24    11 24.69   +05 57.1   37.827   37.616    77.3     1.5    23.4
2006 07 04    11 25.12   +05 54.0   37.987   37.616    67.9     1.4    23.4
2006 07 14    11 25.70   +05 50.1   38.138   37.616    58.5     1.3    23.4
2006 07 24    11 26.41   +05 45.4   38.273   37.617    49.2     1.2    23.4
2006 08 03    11 27.23   +05 39.9   38.391   37.617    39.8     1.0    23.4
2006 08 13    11 28.15   +05 34.0   38.487   37.617    30.5     0.8    23.3

2005 GV210               a,e,i = 38.93, 0.12, 12                 q = 34.186
Date    TT    R. A. (2000) Decl.     Delta      r     Elong.  Phase     V
2006 03 16    12 37.73   -00 48.6   39.958   40.924   165.9     0.3    22.9
2006 03 26    12 36.99   -00 43.2   39.932   40.927   175.3     0.1    22.9
2006 04 05    12 36.23   -00 37.8   39.937   40.929   172.9     0.2    22.9
2006 04 15    12 35.48   -00 32.7   39.971   40.932   163.3     0.4    23.0
2006 04 25    12 34.77   -00 28.0   40.033   40.935   153.4     0.6    23.0
2006 05 05    12 34.14   -00 23.8   40.122   40.938   143.6     0.8    23.0
2006 05 15    12 33.59   -00 20.4   40.235   40.941   133.8     1.0    23.0
2006 05 25    12 33.15   -00 17.7   40.368   40.944   124.1     1.2    23.1
2006 06 04    12 32.84   -00 15.9   40.517   40.947   114.4     1.3    23.1
2006 06 14    12 32.67   -00 15.1   40.678   40.950   104.8     1.4    23.1
2006 06 24    12 32.63   -00 15.2   40.846   40.952    95.3     1.4    23.1
2006 07 04    12 32.75   -00 16.2   41.017   40.955    85.8     1.4    23.1
2006 07 14    12 33.00   -00 18.2   41.186   40.958    76.4     1.4    23.1
2006 07 24    12 33.40   -00 21.0   41.348   40.961    66.9     1.3    23.1
2006 08 03    12 33.93   -00 24.7   41.500   40.964    57.5     1.2    23.1
2006 08 13    12 34.58   -00 29.0   41.636   40.967    48.2     1.1    23.1
2006 08 23    12 35.34   -00 34.0   41.753   40.970    38.8     0.9    23.1

Brian G. Marsden             (C) Copyright 2006 MPC           M.P.E.C. 2006-F17

Read MPEC 2006-F16 Read MPEC 2006-F18


Our Web policy. Index to the CBAT/MPC/ICQ pages.


Valid HTML 4.01!